一网星座-0542星 (ONEWEB-0542 )

导读

ONEWEB-0542是英国OneWeb公司的低轨通信卫星,于2022年12月8日发射,属于OneWeb第一代低轨卫星星座组网卫星。该卫星运行在1200千米近地轨道,单颗重约147.5kg,配备Ku、Ka波段天线,依托全球关口站为全球提供宽带互联网接入服务,侧重服务政府及偏远地区网络需求,是OneWeb实现全球覆盖卫星通信网络的重要组成部分。

基本信息
目录编号:
54646
目录名称:
ONEWEB-0542
国际标识:
2022-166E
轨道中心:
EARTH
卫星名称:
一网星座-0542星
卫星全名:
一网星座-0542星 (ONEWEB-0542 )
卫星状态:
在轨 (已飞行1284 天)
发射日期:
2022-12-08 UTC
国别 :
英国 (GB)
星等 :
--
轨道信息
数据来源 国际轨道数据 AOE轨道数据
星历时间 2026-06-14T01:50:28+0800
18小时前
查看轨道信息
2026-06-14T02:00:00+0800
17小时前
查看轨道信息
半长轴 7555.885km 7555.892km
偏心率 0.0002042 0.0001925
轨道倾角 87.926° 87.928°
近地点辐角 90.047° 98.059°
升交点赤经 244.655° 244.653°
平近点角 270.090° 293.548°
近地点 1176.205km 1176.3km
远地点 1179.291km 1179.21km
周期 108.940分钟 108.940分钟
每日圈数 13.218275 13.218258
详细信息
平衡模式:
三轴稳定
覆盖范围:
全球
运营商:
一网卫星公司
运营商所在国:
英国
制造商(研发单位):
一网卫星公司
制造商所在国:
英国
使用方式:
暂无
卫星简介
OneWeb卫星网络由648颗重约125公斤的微型卫星组成,运行在1200公里的轨道上。 每颗卫星都能够提供至少每秒8千兆位的吞吐量,以使用其高吞吐量的Ku频段有效载荷为家庭和移动平台提供互联网接入。该卫星仍在工作。
2D轨道图
3D轨道图
轨道高度分析图
轨道倾角分析图
轨道综合分析图
查看轨道综合分析图